Погода в Мариуполе

Поиск расширенной информации на нашем сайте:

Полезная информация:

Новости сайта



02.01.2020
Опубликован Долгосрочный прогноз погоды по городам России и ближнего зарубежья на январь 2020 года.
Карты: Прогноз на январь и февраль 2020 года, Сравнение прогнозируемой аномалии приземной температуры воздуха на январь 2020 года по разным моделям.




Погода в Мариуполе - сегодня

Время (UTC), дата Ветер
(°,м/с) 
Видим.   Явления Облачность Т
(°С)
Тd
(°С)
f(%) Тe
(°С)
Pmin
(гПа)
dP
(гПа)
Po
(мм)
O2
(г/м3)
Тmin Tmax R s Состояние
почвы
00 16.01.22 310 (СЗ) 20000 м    8/0 средняя, верхняя 
[Ac trans|Cs]
-0.8 -3 85 -3  1010.9  2.7  752  304           
03 16.01.22 310 (СЗ) 20000 м    10/10 600 м 
[Sc]
-0.9 -3.4 83 -3  1012.4  1.5  753  305           
06 16.01.22 310 (СЗ) 20000 м    10/8 600 м средняя 
[Sc|Ac und]
-1.3 -4.6 78 -4  1015.1  2.7  755  306  -1.6      лёд 
09 16.01.22 290 (З) 20000 м  слаб. ливневой снег  9/9 600 м кучево-дожд. 
[Cb cap]
+0.7 -3.9 71 -2    1.6             
12 16.01.22 300 (СЗ) 20000 м  в посл. час ливневой снег  9/8 300 м кучево-дожд., верхняя 
[Cb cap|Cc]
+1.7 -2.1 76 -1               
15 16.01.22 300 (СЗ) 20000 м    10/10 600 м 
[Sc]
+0.8 -2.5 79 -2  1018.3  1.6  757  304           
18 16.01.22 280 (З) 20000 м  в посл. час ливневой снег  8/6 600 м кучево-дожд., средняя 
[Cb cap|Ac trans]
+0.1 -2.6 82 -2  1019.4  1.1  758  306    +2.2  0.0     
21 16.01.22 280 (З) 20000 м    10/10 600 м 
[Sc]
-1.1 -2.7 89 -4  1019.8  0.4  758  307           
00 17.01.22 280 (З) 20000 м    8/0 средняя, верхняя 
[Ac trans|Cc]
-1.5 -3.5 86 -3  1019.5  -0.4  758  308           
03 17.01.22 260 (З) 20000 м    10/10 600 м 
[Sc]
-1.3 -3 88 -3  1018.3  -1.1  757  307           
06 17.01.22 230 (ЮЗ) 20000 м    9/0 средняя 
[Ac und]
-0.5 -3.6 80 -2  1017.4  -0.9  756  306  -1.8         
09 17.01.22 220 (ЮЗ) 20000 м    9/0 средняя, верхняя 
[Ac trans|Cs]
+2.5 -2.4 70 -1  1015.2  -2.1  755  302           
12 17.01.22 200 (Ю) 20000 м    10/6 600 м средняя 
[St|Ac As]
+2.5 -0.8 79 -1  1011.9  -3.3  752  300           
15 17.01.22 200 (Ю) 20000 м    10/10 600 м кучево-дожд. 
[Cb cap]
+2.1 -0.7 82 -2  1008.4  -3.4  750  300           
18 17.01.22 200 (Ю) 20000 м  в посл. час ливневой дождь  10/10 600 м кучево-дожд. 
[Cb cap]
+2.3 +1.3 93 -1  1005.8  -2.6  748  299    +3.3  0.5     
21 17.01.22 230 (ЮЗ) 4000 м  слаб. ливневой дождь  10/10 300 м кучево-дожд. 
[Cb cap]
+2.3 +1.5 94 -2  1002.8  -3  746  298           
00 18.01.22 250 (З) 10 км  {ливн. осадки}  10/10 600 м 
[Sc]
+1.7 +1.2 96 -2  1001.8  -1  745  298         
03 18.01.22 230 (ЮЗ) 10 км  слаб. ливневой снег  10/10 300 м кучево-дожд. 
[Cb cap]
+0.7 -0.1 94 -2  1000.7  -1.1             
06 18.01.22 250 (З) 4000 м  снег{ливн. осадки}  10/9 300 м средняя 
[Frnb|As op]
+0.2 -0.1 98 -3  1000.7  744  300  +0.2    15     
09 18.01.22 290 (З) 20000 м  {снег}  10/10 600 м 
[Sc]
+0.6 -0.8 90 -3    1.8             
12 18.01.22 280 (З) 20000 м    8/8 600 м 
[Sc]
+0.8 -1.2 86 -3  1004.2  1.7  747  300      0.0     
15 18.01.22 290 (З) 20000 м    8/8 600 м 
[Sc]
-1.5 -4.5 80 -5  1008.2  3.8  750  304           
18 18.01.22 300 (СЗ) 20000 м    8/0 средняя 
[As op]
-2.5 -6.2 76 -6  1010.9  2.7  752  306    +1.2  0.0    полностью
покрыта
пылью 
21 18.01.22 300 (СЗ) 20000 м    6/0 средняя 
[Ac As]
-4.1 -7.5 77 -7  1012.6  1.6  753  309        598   
00 19.01.22 290 (З) 20000 м    8/4 600 м средняя 
[Sc|Ac As]
-4.6 -7.3 81 -7  1014.5  1.9  754  310        598   
Время (UTC), дата Ветер
(°,м/с) 
Видим.   Явления Облачность Т
(°С)
Тd
(°С)
f(%) Тe
(°С)
Pmin
(гПа)
dP
(гПа)
Po
(мм)
O2
(г/м3)
Тmin Tmax R s Состояние
почвы

Для получения пояснительной информации подведите курсор к названию столбца.

ПОГОДА в Мариуполе - архив

Всё, что Вы хотите узнать о погоде в Мариуполе - удобно и подробно!

Выберите нужную дату (начиная с 1 января 2019* года) и нажмите кнопку "Найти".
Будут отображены архивные сводки погоды по пункту Мариуполь, начиная с указанной даты.


Отображать данные в формате CSV (для использования в таблицах Excel)


Внимание! Наш архив погоды предназначен исключительно для личного некоммерческого использования в познавательных целях. Если Вам необходимы официальные справки о состоянии погоды (для производственных, юридических, коммерческих и т.п. целей), обращайтесь в органы Росгидромета.

*Примечание: данная дата относится к архиву по метеостанциям СССР (Россия, СНГ, Балтия).
Архив по метеостанциям Зарубежной Европы и Азии (кроме Китая) хранится 10 дней, по другим регионам земного шара (Китай, Африка, Америка, Австралия, Океания) - 1 день.

Мариуполь - район местоположения метеостанции


Название, широта, долгота, высота метеостанции:
Мариуполь (город) 47°ш. 37.5°д. 70 м над ур. моря [Украина]

Дополнительная информация

В oтличие oт бoльшинства пoгoдных сайтoв мы публикуем пoдрoбную метеoинфoрмацию в детальнoм прoфессиoнальнoм фoрмате.

Характеристики температуры и влажнoсти вoздуха измеряются на высoте 2 м в тени вдали oт зданий и деревьев.
Скoрoсть ветра измеряется на высoте 10 м (на урoвне рoста челoвека скoрoсть ветра ниже в 1.5-2 раза). Если метеoстанция нахoдится в гoрoде или в лесу, тo скoрoсть ветра занижена на 2-4 м/с пo сравнению с oткрытым местoм. Скoрoсть ветра над акватoриями крупных рек и oзёр, а также на вершинах хoлмoв на 2-5 м/с выше, чем в oбычных услoвиях.
Атмoсфернoе давление в разных тoчках местнoсти мoжет значительнo oтличаться oт давления на метеoстанции, в зависимoсти oт услoвий рельефа (при пoдъёме на 10 м давление пoнижается примернo на 1 мм рт.ст.).